Time,TemperatureF,DewpointF,PressureIn,WindDirection,WindDirectionDegrees,WindSpeedMPH,WindSpeedGustMPH,Humidity,HourlyPrecipIn,Conditions,Clouds,dailyrainin,SoftwareType,DateUTC
2013-05-04 00:00:00,53.2,43.7,30.18,NNE,25,1.0,8.0,70,0.00,CLR,,0.00,WeatherDisplay:10.37,2013-05-04 04:00:00,
2013-05-04 00:30:00,52.2,43.4,30.18,ENE,58,2.0,9.0,72,0.00,CLR,,0.00,WeatherDisplay:10.37,2013-05-04 04:30:00,
2013-05-04 01:00:00,51.3,42.6,30.18,East,89,2.0,5.0,72,0.00,CLR,,0.00,WeatherDisplay:10.37,2013-05-04 05:00:00,
2013-05-04 01:30:00,50.6,42.6,30.17,WSW,240,1.0,5.0,74,0.00,CLR,,0.00,WeatherDisplay:10.37,2013-05-04 05:30:00,
2013-05-04 02:00:00,50.0,42.4,30.17,East,80,0.0,4.0,75,0.00,CLR,,0.00,WeatherDisplay:10.37,2013-05-04 06:00:00,
2013-05-04 02:30:00,49.5,42.2,30.15,ENE,60,1.0,5.0,76,0.00,CLR,,0.00,WeatherDisplay:10.37,2013-05-04 06:30:00,
2013-05-04 03:00:00,49.3,42.4,30.15,NE,56,1.0,5.0,77,0.00,CLR,,0.00,WeatherDisplay:10.37,2013-05-04 07:00:00,
2013-05-04 03:30:00,48.9,42.4,30.15,WNW,300,1.0,5.0,78,0.00,CLR,,0.00,WeatherDisplay:10.37,2013-05-04 07:30:00,
2013-05-04 04:00:00,48.7,42.8,30.15,ENE,78,5.0,7.0,80,0.00,CLR,,0.00,WeatherDisplay:10.37,2013-05-04 08:00:00,
2013-05-04 04:29:00,48.6,43.0,30.14,NNE,27,2.0,7.0,81,0.00,OVC,,0.00,WeatherDisplay:10.37,2013-05-04 08:29:00,
2013-05-04 04:59:00,48.6,43.3,30.15,NE,44,3.0,7.0,82,0.00,OVC,,0.00,WeatherDisplay:10.37,2013-05-04 08:59:00,
2013-05-04 05:29:00,48.6,43.3,30.14,WNW,300,1.0,5.0,82,0.00,OVC,,0.00,WeatherDisplay:10.37,2013-05-04 09:29:00,
2013-05-04 05:59:00,48.4,43.5,30.15,NE,37,2.0,6.0,83,0.00,OVC,,0.00,WeatherDisplay:10.37,2013-05-04 09:59:00,
2013-05-04 06:29:00,48.4,43.5,30.15,North,354,2.0,6.0,83,0.00,OVC,,0.00,WeatherDisplay:10.37,2013-05-04 10:29:00,
2013-05-04 07:00:00,48.4,43.8,30.16,ENE,65,1.0,6.0,84,0.00,OVC,,0.00,WeatherDisplay:10.37,2013-05-04 11:00:00,
2013-05-04 07:30:00,48.2,43.3,30.16,NNE,30,2.0,7.0,83,0.00,OVC,,0.00,WeatherDisplay:10.37,2013-05-04 11:30:00,
2013-05-04 08:00:00,48.2,43.3,30.17,ENE,75,2.0,5.0,83,0.00,OVC,,0.00,WeatherDisplay:10.37,2013-05-04 12:00:00,
2013-05-04 08:29:00,48.0,43.7,30.17,North,0,1.0,5.0,85,0.00,OVC,,0.00,WeatherDisplay:10.37,2013-05-04 12:29:00,
2013-05-04 08:59:00,48.2,43.9,30.17,East,91,2.0,7.0,85,0.00,OVC,,0.00,WeatherDisplay:10.37,2013-05-04 12:59:00,
2013-05-04 09:29:00,48.7,44.1,30.16,ENE,71,2.0,5.0,84,0.00,OVC,,0.00,WeatherDisplay:10.37,2013-05-04 13:29:00,
2013-05-04 09:59:00,49.8,45.2,30.16,ENE,63,1.0,5.0,84,0.00,OVC,,0.00,WeatherDisplay:10.37,2013-05-04 13:59:00,
2013-05-04 10:30:00,51.1,45.5,30.16,NE,47,2.0,8.0,81,0.00,OVC,,0.00,WeatherDisplay:10.37,2013-05-04 14:30:00,
2013-05-04 11:00:00,51.4,45.5,30.15,NE,35,1.0,6.0,80,0.00,OVC,,0.00,WeatherDisplay:10.37,2013-05-04 15:00:00,
2013-05-04 11:30:00,52.7,46.0,30.15,North,360,2.0,7.0,78,0.00,OVC,,0.00,WeatherDisplay:10.37,2013-05-04 15:30:00,
2013-05-04 11:59:00,54.5,47.4,30.15,East,100,2.0,5.0,77,0.00,OVC,,0.00,WeatherDisplay:10.37,2013-05-04 15:59:00,
2013-05-04 12:30:00,55.6,47.4,30.13,ENE,71,3.0,8.0,74,0.00,OVC,,0.00,WeatherDisplay:10.37,2013-05-04 16:30:00,
2013-05-04 13:00:00,55.9,48.1,30.13,ENE,71,1.0,6.0,75,0.00,OVC,,0.00,WeatherDisplay:10.37,2013-05-04 17:00:00,
2013-05-04 13:30:00,58.0,47.9,30.11,NE,53,2.0,7.0,69,0.00,OVC,,0.00,WeatherDisplay:10.37,2013-05-04 17:30:00,
2013-05-04 13:59:00,58.6,48.1,30.10,ENE,67,6.0,8.0,68,0.00,OVC,,0.00,WeatherDisplay:10.37,2013-05-04 17:59:00,
2013-05-04 14:29:00,59.6,47.4,30.09,NE,54,2.0,8.0,64,0.00,OVC,,0.00,WeatherDisplay:10.37,2013-05-04 18:29:00,
2013-05-04 14:59:00,60.0,47.8,30.09,ENE,60,2.0,7.0,64,0.00,OVC,,0.00,WeatherDisplay:10.37,2013-05-04 18:59:00,
2013-05-04 15:30:00,61.5,49.6,30.08,SE,126,2.0,7.0,65,0.00,OVC,,0.00,WeatherDisplay:10.37,2013-05-04 19:30:00,
2013-05-04 15:59:00,61.5,49.6,30.08,NNE,13,2.0,6.0,65,0.00,OVC,,0.00,WeatherDisplay:10.37,2013-05-04 19:59:00,
2013-05-04 16:29:00,60.9,49.0,30.07,ENE,59,3.0,7.0,65,0.00,OVC,,0.00,WeatherDisplay:10.37,2013-05-04 20:29:00,
2013-05-04 16:59:00,60.8,49.0,30.06,South,174,2.0,7.0,65,0.00,OVC,,0.00,WeatherDisplay:10.37,2013-05-04 20:59:00,
2013-05-04 17:29:00,60.5,49.1,30.06,NE,53,3.0,8.0,66,0.00,FEW,,0.00,WeatherDisplay:10.37,2013-05-04 21:29:00,
2013-05-04 18:00:00,60.4,49.4,30.06,ENE,61,2.0,7.0,67,0.00,FEW,,0.00,WeatherDisplay:10.37,2013-05-04 22:00:00,
2013-05-04 18:30:00,59.9,49.3,30.06,East,83,2.0,8.0,68,0.00,SCT,,0.00,WeatherDisplay:10.37,2013-05-04 22:30:00,
2013-05-04 19:00:00,58.8,49.1,30.07,North,6,2.0,5.0,70,0.00,SCT,,0.00,WeatherDisplay:10.37,2013-05-04 23:00:00,
2013-05-04 19:30:00,58.5,49.5,30.08,NNW,327,1.0,5.0,72,0.00,BKN,,0.00,WeatherDisplay:10.37,2013-05-04 23:30:00,
2013-05-04 19:59:00,57.2,49.3,30.08,NNE,15,2.0,6.0,75,0.00,BKN,,0.00,WeatherDisplay:10.37,2013-05-04 23:59:00,
2013-05-04 20:29:00,56.5,49.4,30.08,NNE,21,1.0,5.0,77,0.00,OVC,,0.00,WeatherDisplay:10.37,2013-05-05 00:29:00,
2013-05-04 20:59:00,56.1,49.7,30.08,WSW,248,5.0,6.0,79,0.00,OVC,,0.00,WeatherDisplay:10.37,2013-05-05 00:59:00,
2013-05-04 21:29:00,54.7,49.9,30.08,ENE,71,1.0,5.0,84,0.00,OVC,,0.00,WeatherDisplay:10.37,2013-05-05 01:29:00,
2013-05-04 21:59:00,54.3,50.5,30.08,ENE,66,2.0,8.0,87,0.00,OVC,,0.00,WeatherDisplay:10.37,2013-05-05 01:59:00,
2013-05-04 22:30:00,54.1,50.0,30.09,SE,133,1.0,8.0,86,0.00,OVC,,0.00,WeatherDisplay:10.37,2013-05-05 02:30:00,
2013-05-04 23:00:00,54.1,50.0,30.08,East,91,3.0,7.0,86,0.00,OVC,,0.00,WeatherDisplay:10.37,2013-05-05 03:00:00,
2013-05-04 23:29:00,54.0,49.9,30.07,East,90,5.0,7.0,86,0.00,OVC,,0.00,WeatherDisplay:10.37,2013-05-05 03:29:00,